Find Starlink 5856

NORAD ID: 55914 Int'l Des: 2023-037 Owner: SPXS Country: US Constellation: starlink operational
LEOCIRCULAR

Live-Position

3D-Globus wird geladen...

Über Starlink 5856

Beschreibung wird geladen...

Nächste Überflüge

Passes for default location (London). Set your location on the main map for personalized predictions.

Höhenverlauf

Loading altitude history...

Zweizeiliger Elementsatz

1 55914U 23037A 26122.16587139 -.00000070 00000-0 19670-5 0 9998
2 55914 69.9998 169.7771 0003387 269.4049 90.6722 14.98329641172181
Epoch: 2. Mai 2026 • Age: 3 hours

Aktueller Status

Höhe 581.5 km
Geschwindigkeit 7.57 km/s
Subsatellitenpunkt 50.68°N, 136.05°W
Startdatum 17. März 2023
Alter 3.1 years
Typ internet

Technische Details

Klassifizierung Payload
Masse 305.00 kg
Trockenmasse 290.00 kg
Gesamtmasse 305.00 kg
Länge 0.20 m
Durchmesser 2.80 m
Spannweite 9.00 m
Form Box + pan
Hersteller SPXS
Bus-Typ Starlink
Phasenstatus In Orbit
Besitzer/Staat SPXS/US

Most Searched